EW6020 Weather Reports


Display with metric or nautical units.
time (UTC)temp
F
wind
direction
speed
MPH
gust
MPH
rain 1hr
in
rain 24hr
in
rain mn
in
humidity
%
barometer
mb
20260901190108 63 178 6.0 11.0 0.00 0.00 0.00 76 1009.6
20260901184556 63 154 8.0 12.0 0.00 0.00 0.00 76 1009.7
20260901183055 63 174 3.0 10.0 0.00 0.00 0.00 76 1009.8
20260901181601 63 164 7.0 11.0 0.00 0.00 0.00 77 1009.9
20260901180053 63 179 5.0 10.0 0.00 0.00 0.00 77 1009.9
20260901174551 62 151 5.0 11.0 0.00 0.00 0.00 80 1009.9
20260901173048 62 151 7.0 12.0 0.00 0.00 0.00 81 1009.8
20260901171602 61 151 8.0 11.0 0.00 0.00 0.00 82 1009.8
20260901170048 61 150 5.0 10.0 0.00 0.00 0.00 81 1009.8
20260901164545 60 149 5.0 9.0 0.00 0.00 0.00 83 1009.7
20260901163039 60 150 4.0 9.0 0.00 0.00 0.00 84 1009.9
20260901161539 59 150 2.0 6.0 0.00 0.00 0.00 86 1009.9
20260901160038 59 150 2.0 4.0 0.00 0.00 0.00 86 1009.8
20260901154533 58 150 1.0 3.0 0.00 0.00 0.00 88 1010.0
20260901153033 57 150 3.0 4.0 0.00 0.00 0.00 89 1010.0
20260901151530 57 151 2.0 4.0 0.00 0.00 0.00 89 1009.9
20260901150029 57 150 1.0 3.0 0.00 0.00 0.00 90 1009.9
20260901144529 0 0.0 0.0 0.00 0.00 0.00 1009.7
20260901143022 0 0.0 0.0 0.00 0.00 0.00 1009.5
20260901141532 0 0.0 0.0 0.00 0.00 0.00 1009.5
20260901140015 0 0.0 0.0 0.00 0.00 0.00 1009.6
20260901134512 0 0.0 0.0 0.00 0.00 0.00 1009.3
20260901133006 0 0.0 0.0 0.00 0.00 0.00 1009.2
20260901131502 0 0.0 0.0 0.00 0.00 0.00 1009.3
20260901130058 0 0.0 0.0 0.00 0.00 0.00 1009.2
20260901124558 0 0.0 0.0 0.00 0.00 0.00 1009.1
20260901123049 0 0.0 0.0 0.00 0.00 0.00 1009.2
20260901121547 0 0.0 0.0 0.00 0.00 0.00 1009.1
20260901120040 54 140 0.0 0.0 0.00 0.00 0.00 92 1009.0
20260901114552 55 150 0.0 1.0 0.00 0.00 0.00 93 1008.9
20260901113038 54 149 1.0 2.0 0.00 0.00 0.00 93 1008.9
20260901111539 54 150 0.0 1.0 0.00 0.00 0.00 91 1008.8
20260901110033 55 150 0.0 1.0 0.00 0.00 0.00 91 1008.7
20260901104533 55 149 1.0 3.0 0.00 0.00 0.00 91 1008.5
20260901103029 55 148 1.0 3.0 0.00 0.00 0.00 90 1008.5
20260901101527 55 146 1.0 5.0 0.00 0.00 0.00 90 1008.5
20260901100027 55 148 3.0 5.0 0.00 0.00 0.00 90 1008.5
20260901094525 55 145 2.0 4.0 0.00 0.00 0.00 90 1008.4
20260901093020 56 148 2.0 4.0 0.00 0.00 0.00 89 1008.4
20260901091518 56 150 2.0 4.0 0.00 0.00 0.00 89 1008.1
20260901090017 56 149 3.0 5.0 0.00 0.00 0.00 89 1008.0
20260901084515 56 149 3.0 6.0 0.00 0.00 0.00 88 1008.1
20260901083014 57 149 2.0 6.0 0.00 0.00 0.00 88 1008.1
20260901081515 57 148 3.0 7.0 0.00 0.00 0.00 87 1008.1
20260901080010 57 153 5.0 9.0 0.00 0.00 0.00 87 1008.1
20260901074511 57 163 6.0 9.0 0.00 0.00 0.00 87 1007.9
20260901073012 57 148 5.0 8.0 0.00 0.00 0.00 86 1007.8
20260901071502 58 148 3.0 8.0 0.00 0.00 0.00 85 1007.8
20260901070059 58 150 5.0 9.0 0.00 0.00 0.00 85 1007.6
20260901064554 59 153 7.0 11.0 0.00 0.00 0.00 84 1007.3
20260901063049 59 150 6.0 10.0 0.00 0.00 0.00 83 1007.3
20260901061545 60 153 6.0 9.0 0.00 0.00 0.00 81 1007.0
20260901060041 61 151 4.0 8.0 0.00 0.00 0.00 79 1006.9
20260901054538 61 149 5.0 7.0 0.00 0.00 0.00 78 1006.8
20260901053031 62 148 4.0 5.0 0.00 0.00 0.00 76 1006.7
20260901051528 63 148 3.0 4.0 0.00 0.00 0.00 74 1006.6
20260901050023 64 177 2.0 4.0 0.00 0.00 0.00 72 1006.4
20260901044519 65 177 4.0 7.0 0.00 0.00 0.00 71 1006.4
20260901043013 65 177 3.0 6.0 0.00 0.00 0.00 69 1006.4
20260901041509 66 178 3.0 7.0 0.00 0.00 0.00 66 1006.1
20260901040004 68 177 4.0 8.0 0.00 0.00 0.00 64 1005.9
20260901034601 70 178 4.0 10.0 0.00 0.00 0.00 61 1005.8
20260901033057 72 177 1.0 5.0 0.00 0.00 0.00 61 1005.4
20260901031552 73 177 3.0 7.0 0.00 0.00 0.00 59 1005.0
20260901030047 75 178 2.0 5.0 0.00 0.00 0.00 55 1004.7
20260901024543 77 178 1.0 6.0 0.00 0.00 0.00 53 1004.6
20260901023037 78 170 4.0 10.0 0.00 0.00 0.00 51 1004.7
20260901021533 79 178 5.0 9.0 0.00 0.00 0.00 47 1004.7
20260901020029 80 178 5.0 10.0 0.00 0.00 0.00 44 1004.7
20260901014524 81 179 7.0 11.0 0.00 0.00 0.00 42 1004.7
20260901013034 82 179 7.0 11.0 0.00 0.00 0.00 40 1004.6
20260901011514 83 178 4.0 11.0 0.00 0.00 0.00 38 1004.7
20260901010010 85 177 6.0 10.0 0.00 0.00 0.00 36 1004.7
20260901004505 84 173 4.0 9.0 0.00 0.00 0.00 36 1004.8
20260901003001 84 172 3.0 7.0 0.00 0.00 0.00 35 1004.7
20260901001559 83 152 4.0 9.0 0.00 0.00 0.00 36 1004.8
20260901000052 83 153 4.0 9.0 0.00 0.00 0.00 36 1004.9
20260831234555 85 148 4.0 9.0 0.00 0.00 0.00 35 1004.9
20260831233043 86 177 0.0 4.0 0.00 0.00 0.00 32 1005.0
20260831231539 85 176 3.0 6.0 0.00 0.00 0.00 31 1005.1
20260831230038 87 176 2.0 6.0 0.00 0.00 0.00 31 1005.1
20260831224530 85 178 1.0 6.0 0.00 0.00 0.00 32 1005.4
20260831223029 84 178 3.0 9.0 0.00 0.00 0.00 33 1005.5
20260831221521 85 174 1.0 5.0 0.00 0.00 0.00 34 1005.7
20260831220017 85 179 2.0 6.0 0.00 0.00 0.00 35 1005.8
20260831214517 83 153 2.0 5.0 0.00 0.00 0.00 37 1005.9
20260831213007 83 174 4.0 6.0 0.00 0.00 0.00 37 1006.0
20260831211510 81 179 1.0 7.0 0.00 0.00 0.00 39 1006.1
20260831210059 81 176 1.0 6.0 0.00 0.00 0.00 40 1006.3
20260831204600 81 176 0.0 6.0 0.00 0.00 0.00 39 1006.5
20260831203106 80 177 0.0 6.0 0.00 0.00 0.00 41 1006.5
20260831201553 79 176 4.0 8.0 0.00 0.00 0.00 42 1006.9
20260831200119 79 177 0.0 3.0 0.00 0.00 0.00 43 1007.1
20260831194538 78 175 1.0 4.0 0.00 0.00 0.00 43 1007.3
20260831193032 76 176 4.0 9.0 0.00 0.00 0.00 46 1007.3
20260831191527 76 177 0.0 6.0 0.00 0.00 0.00 47 1007.6